GW4137 Weather Reports


time (UTC)temp
C
wind
direction
speed
KPH
gust
KPH
rain 1hr
cm
rain 24hr
cm
rain mn
cm
humidity
%
barometer
mb
20260906120107 13 34 20.9 27.4 0.00 0.25 0.03 86 1018.1
20260906114622 13 26 19.3 24.1 0.00 0.25 0.03 83 1018.4
20260906113059 13 11 12.9 19.3 0.00 0.25 0.03 82 1018.7
20260906111625 13 23 11.3 19.3 0.00 0.25 0.03 82 1018.7
20260906110054 13 34 11.3 19.3 0.00 0.25 0.03 83 1018.6
20260906104603 13 35 11.3 16.1 0.00 0.25 0.03 83 1018.7
20260906103052 13 34 8.0 19.3 0.00 0.25 0.03 84 1018.7
20260906101553 13 32 9.7 19.3 0.00 0.25 0.03 86 1018.8
20260906100054 13 23 14.5 22.5 0.00 0.25 0.03 86 1018.6
20260906094553 13 17 16.1 27.4 0.00 0.25 0.03 88 1018.8
20260906093101 13 9 17.7 30.6 0.00 0.25 0.03 87 1018.6
20260906091600 13 10 20.9 33.8 0.00 0.25 0.03 87 1018.8
20260906090113 13 352 24.1 30.6 0.00 0.25 0.03 86 1019.1
20260906084607 13 329 17.7 27.4 0.00 0.25 0.03 86 1019.5
20260906083103 13 330 11.3 22.5 0.00 0.25 0.03 87 1019.8
20260906081604 13 333 11.3 24.1 0.00 0.25 0.03 88 1020.0
20260906080057 13 273 11.3 19.3 0.03 0.25 0.03 87 1020.1
20260906074603 13 5 0.0 8.0 0.03 0.25 0.03 87 1019.6
20260906073101 13 5 4.8 20.9 0.03 0.25 0.03 87 1019.7
20260906071600 13 23 14.5 24.1 0.03 0.25 0.03 87 1019.6
20260906070114 13 352 19.3 30.6 0.00 0.23 0.00 87 1019.6
20260906064552 13 352 20.9 29.0 0.00 0.23 0.00 86 1019.8
20260906063054 13 331 12.9 24.1 0.03 0.23 0.00 86 1020.3
20260906061613 13 334 19.3 35.4 0.03 0.23 0.00 86 1020.2
20260906060104 13 309 11.3 22.5 0.03 0.23 0.00 86 1020.6
20260906054559 13 360 17.7 24.1 0.03 0.23 0.23 86 1020.2
20260906053057 13 355 17.7 25.7 0.00 0.20 0.20 87 1020.0
20260906051552 12 340 12.9 20.9 0.03 0.20 0.20 88 1019.9
20260906050115 12 337 9.7 17.7 0.03 0.20 0.20 88 1020.0
20260906044556 13 323 9.7 20.9 0.05 0.20 0.20 86 1020.3
20260906043106 13 350 9.7 24.1 0.05 0.20 0.20 85 1020.3
20260906041551 13 352 19.3 30.6 0.05 0.18 0.18 86 1019.3
20260906040115 13 343 20.9 32.2 0.08 0.18 0.18 86 1018.9
20260906034556 13 350 17.7 27.4 0.05 0.15 0.15 85 1019.1
20260906033053 13 340 11.3 20.9 0.05 0.15 0.15 82 1019.6
20260906031603 15 259 4.8 14.5 0.03 0.13 0.13 73 1020.1
20260906024552 15 0 1.6 11.3 0.00 0.10 0.10 70 1018.3
20260906023122 16 13 14.5 20.9 0.00 0.10 0.10 68 1017.8
20260906021556 16 352 9.7 19.3 0.00 0.10 0.10 67 1017.9
20260906020053 16 352 8.0 19.3 0.00 0.10 0.10 67 1017.9
20260906014606 16 352 11.3 19.3 0.00 0.10 0.10 66 1017.8
20260906013058 17 350 9.7 22.5 0.00 0.10 0.10 65 1018.0
20260906011556 17 360 12.9 24.1 0.00 0.10 0.10 64 1018.0
20260906010107 17 5 16.1 24.1 0.00 0.10 0.10 62 1018.0
20260906004613 18 347 12.9 24.1 0.00 0.10 0.10 59 1018.0
20260906003113 18 352 12.9 24.1 0.00 0.10 0.10 57 1018.1
20260906001604 20 313 16.1 27.4 0.00 0.10 0.10 54 1018.2
20260906000111 20 331 17.7 30.6 0.00 0.10 0.10 52 1018.1
20260905234602 20 322 19.3 29.0 0.00 0.10 0.10 52 1018.3
20260905233109 21 317 12.9 25.7 0.00 0.10 0.10 50 1018.4
20260905231602 21 315 11.3 20.9 0.00 0.10 0.10 49 1018.4
20260905230057 21 290 9.7 19.3 0.00 0.10 0.10 45 1018.3
20260905224604 22 327 8.0 22.5 0.00 0.10 0.10 43 1018.3
20260905223052 22 291 6.4 16.1 0.00 0.10 0.10 44 1018.3
20260905221558 21 323 4.8 14.5 0.00 0.10 0.10 44 1018.4
20260905220059 22 0 0.0 12.9 0.00 0.10 0.10 44 1018.5
20260905214553 22 325 1.6 12.9 0.00 0.10 0.10 44 1018.6
20260905213107 21 17 0.0 12.9 0.00 0.10 0.10 42 1018.6
20260905211609 21 5 3.2 11.3 0.00 0.10 0.10 43 1018.6
20260905210104 21 308 6.4 14.5 0.00 0.10 0.10 44 1018.7
20260905204600 21 273 4.8 12.9 0.00 0.10 0.10 45 1018.8
20260905203100 21 288 4.8 16.1 0.00 0.10 0.10 45 1018.9
20260905201554 20 0 3.2 14.5 0.00 0.10 0.10 45 1019.0
20260905200058 20 285 1.6 9.7 0.00 0.10 0.10 45 1019.0
20260905194604 20 285 4.8 14.5 0.00 0.10 0.10 47 1019.1
20260905193057 20 0 3.2 12.9 0.00 0.10 0.10 47 1019.1
20260905191552 20 0 4.8 14.5 0.00 0.10 0.10 48 1019.2
20260905184603 19 300 9.7 16.1 0.00 0.10 0.10 54 1019.4
20260905183125 18 298 6.4 16.1 0.00 0.10 0.10 55 1019.5
20260905181557 19 308 3.2 17.7 0.00 0.10 0.10 56 1019.5
20260905180057 18 313 6.4 12.9 0.00 0.10 0.10 57 1019.8
20260905174555 17 340 8.0 16.1 0.00 0.10 0.10 60 1019.8
20260905173101 17 332 6.4 16.1 0.00 0.10 0.10 68 1019.8
20260905171605 16 339 4.8 9.7 0.03 0.10 0.10 70 1020.0
20260905170057 15 344 3.2 14.5 0.03 0.10 0.10 73 1019.9
20260905164602 15 328 1.6 8.0 0.03 0.10 0.10 77 1020.1
20260905163054 14 328 0.0 6.4 0.03 0.10 0.10 84 1019.9
20260905161557 13 0 4.8 9.7 0.00 0.08 0.08 88 1019.8
20260905160053 13 331 4.8 8.0 0.03 0.08 0.08 89 1019.8
20260905154601 12 0 0.0 0.0 0.03 0.08 0.08 90 1019.7
20260905153059 12 0 0.0 0.0 0.03 0.08 0.08 91 1019.8
20260905151559 12 0 0.0 6.4 0.03 0.08 0.08 91 1019.6
20260905150104 12 332 3.2 8.0 0.00 0.05 0.05 92 1019.2
20260905144553 11 0 0.0 0.0 0.03 0.05 0.05 92 1019.3
20260905143101 11 332 3.2 14.5 0.03 0.05 0.05 91 1019.2
20260905141558 10 336 6.4 16.1 0.05 0.05 0.05 92 1018.8
20260905140104 10 360 9.7 16.1 0.05 0.05 0.05 91 1018.6
20260905134553 10 293 4.8 12.9 0.03 0.03 0.03 90 1019.3
20260905133100 10 291 6.4 17.7 0.03 0.03 0.03 88 1019.7
20260905131610 11 281 11.3 17.7 0.00 0.00 0.00 86 1019.9
20260905130105 11 281 11.3 19.3 0.00 0.00 0.00 85 1019.4
20260905124558 11 284 0.0 9.7 0.00 0.00 0.00 83 1018.6
20260905123104 11 0 0.0 6.4 0.00 0.00 0.00 81 1018.8
20260905121553 11 283 3.2 11.3 0.00 0.00 0.00 80 1017.8